Regional Weather Roundup
Issued by NWS

Home | Current Version | Previous Version | Graphics & Text | Print | Product List | Glossary On
Versions: 1 2 3 4 5 6 7 8 9 10 11 12 13 14 15 16 17 18 19 20 21 22 23 24 25 26 27 28 29 30 31 32 33 34 35 36 37 38 39 40 41 42 43 44 45 46 47 48 49 50
732
ASUS45 KBOU 251807
RWRCO

WEATHER ROUNDUP FOR COLORADO
NATIONAL WEATHER SERVICE DENVER/BOULDER CO
1200 PM MDT THU AUG 25 2016

NOTE: "FAIR" INDICATES FEW OR NO CLOUDS BELOW 12000 FEET WITH NO
SIGNIFICANT WEATHER AND/OR OBSTRUCTIONS TO VISIBILITY.

COZ001>005-013-030-031-251900-
...NORTHWEST COLORADO...

CITY           SKY/WX    TMP DP  RH WIND       PRES   REMARKS
CRAIG          FAIR      66  38  35 VRB3      30.27F
HAYDEN         FAIR      64  36  34 N5        30.28S
MEEKER         FAIR      61  41  47 CALM      30.27F
MOUNT WERNER   NOT AVBL
STEAMBOAT SPGS FAIR      66  36  32 S3        30.28F
WALDEN         FAIR      64  30  27 SW16G24   30.33F
$$

COZ006>008-011-251900-
...WEST CENTRAL VALLEYS...

CITY           SKY/WX    TMP DP  RH WIND       PRES   REMARKS
GRAND JUNCTION TSTM      65  48  54 SE12      30.17F
MONTROSE       FAIR      71  46  40 N10       30.24F
EAGLE          MOSUNNY   73  36  25 SW22G28   30.25F
RIFLE          FAIR      67  43  41 NW7       30.24S
DELTA          FAIR      77  39  25 S3        30.20F
NUCLA          FAIR      72  41  33 W5        30.27F
$$

COZ017>023-064>068-251900-
...SOUTHWEST COLORADO...

CITY           SKY/WX    TMP DP  RH WIND       PRES   REMARKS
DURANGO        FAIR      70  42  36 VRB5      30.30F
CORTEZ         FAIR      72  47  40 SE5       30.25F
PAGOSA SPRINGS FAIR      66  40  38 S6        30.37F
TELLURIDE      PTSUNNY   58  30  34 S7        30.45S
WOLF CREEK PAS CLOUDY    46  37  71 S13G18    30.64S
$$

COZ009-010-012-014-032>034-037-058>063-251900-
...CENTRAL COLORADO...

CITY           SKY/WX    TMP DP  RH WIND       PRES   REMARKS
ASPEN          PTSUNNY   65  36  34 NW20G25   30.32R
BUENA VISTA    FAIR      63  44  50 SE5       30.35F
COPPER MTN     CLOUDY    52  23  32 NW13      30.57F
BERTHOUD PASS  PTSUNNY   43  30  61 CALM      30.60S
COTTONWOOD PAS FAIR      61  39  44 E9        30.46F
GUNNISON       FAIR      63  39  42 CALM      30.37F
KREMMLING      FAIR      70  32  24 S6        30.30F
LEADVILLE      FAIR      58  26  29 VRB7      30.43F
MONARCH PASS   FAIR      48  36  61 SW22G31   30.69F
SALIDA         FAIR      67  46  46 E6        30.39F
SUNLIGHT       CLOUDY    54  36  50 NE7       30.55S
WILKERSON PASS FAIR      54  34  47 W3        30.58S
$$

COZ069>075-251900-
...SAN LUIS VALLEY/SANGRE DE CRISTO MOUNTAINS...

CITY           SKY/WX    TMP DP  RH WIND       PRES   REMARKS
ALAMOSA        FAIR      65  46  50 VRB5      30.36F
LA VETA PASS   NOT AVBL
SAGUACHE       FAIR      63  45  51 S7        30.38F
$$

COZ035-036-038>040-251900-
...NORTHERN COLORADO FRONT RANGE...

CITY           SKY/WX    TMP DP  RH WIND       PRES   REMARKS
DENVER INTL AP FAIR      64  46  52 VRB3      30.29F
DMNS CITY PARK   N/A     66  43  44 NE1G12    30.28F
AURORA         MOSUNNY   63  46  54 NE7       30.30F
FRONT RANGE AP MOSUNNY   66  48  52 NE3       30.30F
ERIE MUNI ARPT FAIR      66  42  41 NW7       30.28F
BOULDER MUN AP FAIR      64  41  42 NE6       30.29F
CENTENNIAL     FAIR      63  44  50 N6        30.30F
BROOMFIELD     MOSUNNY   64  43  45 N8        30.31F
FORT COLLINS   FAIR      66  43  42 NE9G16    30.28F
LONGMONT       FAIR      69  44  40 CALM      30.29F
$$

COZ041-046-047-076>085-087-088-251900-
...PIKES PEAK/PALMER DIVIDE AND SOUTHERN FOOTHILLS...

CITY           SKY/WX    TMP DP  RH WIND       PRES   REMARKS
COLO. SPRINGS  PTSUNNY   66  43  43 S9        30.32S
A. F. ACADEMY  FAIR      66  45  46 SE9       30.31F
SCHRIEVER AFB  NOT AVBL
ELLICOTT       FAIR     N/A N/A N/A SW6       30.30F
FALCON         FAIR      65  43  44 S9        30.35F
FORT CARSON    NOT AVBL
LIMON          FAIR      70  39  32 E10G20    30.28F
MONUMENT HILL  FAIR      63  46  55 E5        30.35F
TRINIDAD       FAIR      70  49  47 E8        30.28F
$$

COZ042>045-048>051-090-091-251900-
...NORTHEAST COLORADO...

CITY           SKY/WX    TMP DP  RH WIND       PRES   REMARKS
GREELEY ARPT   FAIR      72  37  28 SE7       30.27F
AKRON          FAIR      69  41  36 SE10G22   30.27F
BURLINGTON     FAIR      72  42  34 E12G20    30.26S
WRAY           NOT AVBL
STERLING       FAIR      70  45  40 NE13G18   30.25F
HOLYOKE        FAIR      73  45  35 E8G16     30.27F
FORT MORGAN    FAIR      71  40  33 E13G22    30.28S
$$

COZ086-089-092>099-251900-
...SOUTHEAST COLORADO...

CITY           SKY/WX    TMP DP  RH WIND       PRES   REMARKS
PUEBLO         FAIR      72  47  40 SE9       30.24F
LA JUNTA       FAIR      74  47  38 NE8       30.23F
LAMAR          FAIR      73  56  54 NE9       30.20F
SPRINGFIELD      N/A     69  56  62 E6        30.24S
$$




USA.gov is the U.S. government's official web portal to all federal, state and local government web resources and services.